Weather History for Wise, VA

Change the Weather History Date:

Wednesday, February 27, 2013

  Actual Average Record
Temperature  
Mean Temperature 34 °F -  
Max Temperature 37 °F 46 °F 64 °F (1997)
Min Temperature 32 °F 30 °F 8 °F (2002)
Degree Days  
Heating Degree Days 30    
Moisture  
Dew Point 33 °F    
Average Humidity 95    
Maximum Humidity 100    
Minimum Humidity 87    
Precipitation  
Precipitation 0.00 in - - ()
Sea Level Pressure  
Sea Level Pressure 29.70 in    
Wind  
Wind Speed 13 mph (SW)    
Max Wind Speed 20 mph    
Max Gust Speed 23 mph    
Visibility 4 miles    
Events Rain , Snow    
Averages and records for this station are not official NWS values.
T = Trace of Precipitation, MM = Missing Value Source: NWS Daily Summary

Daily Weather History Graph

Daily Weather History Graph

Search for Another Location

Airport:

Trip Planner

Search our weather history database for the weather conditions in past years. The results will help you decide how hot, cold, wet, or windy it might be!

Date:

Astronomy

Feb. 27, 2013 Rise Set
Actual Time 7:03 AM EST 6:22 PM EST
Civil Twilight 6:37 AM EST 6:48 PM EST
Nautical Twilight 6:07 AM EST 7:18 PM EST
Astronomical Twilight 5:37 AM EST 7:48 PM EST
Moon 8:37 PM EST (2/27) 7:42 AM EST (2/27)
Length of Visible Light 12h 11m
Length of Day
11h 19m
Waning Gibbous, 96% of the Moon is Illuminated
Feb 27
Waning Gibbous
Mar 4
Last Quarter
Mar 11
New
Mar 19
First Quarter
Mar 27
Full

Hourly Weather History & Observations

Time (EST) Temp. Windchill Dew Point Humidity Pressure Visibility Wind Dir Wind Speed Gust Speed Precip Events Conditions
12:15 AM 37.4 °F 28.2 °F 35.6 °F 93% 29.61 in 5.0 mi WSW 16.1 mph 21.9 mph N/A Rain Light Rain
12:35 AM 37.4 °F 27.2 °F 33.8 °F 87% 29.61 in 10.0 mi SW 19.6 mph - N/A   Overcast
12:55 AM 37.4 °F 29.3 °F 33.8 °F 87% 29.61 in 7.0 mi SW 12.7 mph 18.4 mph N/A   Overcast
1:15 AM 37.4 °F 28.5 °F 33.8 °F 87% 29.61 in 10.0 mi SW 15.0 mph 21.9 mph N/A   Overcast
1:35 AM 37.4 °F 27.8 °F 33.8 °F 87% 29.62 in 7.0 mi SW 17.3 mph 23.0 mph N/A   Overcast
1:55 AM 37.4 °F 28.2 °F 33.8 °F 87% 29.62 in 7.0 mi SW 16.1 mph 21.9 mph N/A   Overcast
2:15 AM 35.6 °F 26.2 °F 33.8 °F 93% 29.62 in 10.0 mi SW 15.0 mph 21.9 mph N/A   Overcast
2:35 AM 35.6 °F 27.1 °F 33.8 °F 93% 29.62 in 7.0 mi SW 12.7 mph 17.3 mph N/A   Overcast
2:55 AM 35.6 °F 26.6 °F 33.8 °F 93% 29.61 in 7.0 mi SW 13.8 mph 17.3 mph N/A   Overcast
3:15 AM 35.6 °F 27.1 °F 33.8 °F 93% 29.62 in 5.0 mi WSW 12.7 mph - N/A Snow Light Snow
3:35 AM 35.6 °F 28.0 °F 35.6 °F 100% 29.63 in 7.0 mi WSW 10.4 mph 20.7 mph N/A   Overcast
3:55 AM 35.6 °F 29.2 °F 35.6 °F 100% 29.63 in 7.0 mi West 8.1 mph - N/A   Overcast
4:15 AM 33.8 °F 27.0 °F 33.8 °F 100% 29.64 in 1.5 mi WSW 8.1 mph - N/A Snow Light Snow
4:35 AM 33.8 °F 27.0 °F 33.8 °F 100% 29.65 in 4.0 mi SW 8.1 mph - N/A   Overcast
4:55 AM 33.8 °F 25.3 °F 33.8 °F 100% 29.66 in 7.0 mi SW 11.5 mph 16.1 mph N/A   Overcast
5:15 AM 33.8 °F 24.3 °F 33.8 °F 100% 29.66 in 5.0 mi SW 13.8 mph 18.4 mph N/A   Overcast
5:55 AM 33.8 °F 26.4 °F 33.8 °F 100% 29.67 in 7.0 mi SW 9.2 mph - N/A   Overcast
6:15 AM 33.8 °F 25.3 °F 33.8 °F 100% 29.68 in 7.0 mi SW 11.5 mph - N/A   Overcast
6:35 AM 33.8 °F 25.3 °F 33.8 °F 100% 29.69 in 5.0 mi SW 11.5 mph - N/A   Overcast
6:55 AM 33.8 °F 23.9 °F 33.8 °F 100% 29.69 in 7.0 mi SW 15.0 mph 18.4 mph N/A   Overcast
7:15 AM 33.8 °F 24.8 °F 33.8 °F 100% 29.69 in 4.0 mi SW 12.7 mph 18.4 mph N/A   Overcast
7:35 AM 33.8 °F 24.8 °F 33.8 °F 100% 29.70 in 4.0 mi SW 12.7 mph 17.3 mph N/A   Overcast
7:55 AM 33.8 °F 23.9 °F 33.8 °F 100% 29.70 in 4.0 mi SW 15.0 mph 20.7 mph N/A   Overcast
8:15 AM 33.8 °F 23.9 °F 33.8 °F 100% 29.72 in 5.0 mi SW 15.0 mph - N/A   Overcast
8:35 AM 33.8 °F 24.3 °F 33.8 °F 100% 29.72 in 3.0 mi SW 13.8 mph 19.6 mph N/A   Overcast
8:55 AM 33.8 °F 24.3 °F 33.8 °F 100% 29.72 in 4.0 mi SW 13.8 mph - N/A   Overcast
9:15 AM 33.8 °F 25.3 °F 33.8 °F 100% 29.74 in 4.0 mi SW 11.5 mph 17.3 mph N/A   Overcast
9:35 AM 33.8 °F 24.8 °F 33.8 °F 100% 29.74 in 5.0 mi SW 12.7 mph 18.4 mph N/A   Overcast
9:55 AM 33.8 °F 25.3 °F 33.8 °F 100% 29.75 in 4.0 mi SW 11.5 mph 16.1 mph N/A   Overcast
10:15 AM 33.8 °F 24.8 °F 33.8 °F 100% 29.75 in 5.0 mi SW 12.7 mph - N/A   Overcast
10:35 AM 33.8 °F 24.3 °F 33.8 °F 100% 29.75 in 2.5 mi SW 13.8 mph 19.6 mph N/A   Overcast
10:55 AM 35.6 °F 27.1 °F 33.8 °F 93% 29.75 in 4.0 mi SW 12.7 mph 18.4 mph N/A   Overcast
11:15 AM 33.8 °F 25.3 °F 33.8 °F 100% 29.76 in 3.0 mi SW 11.5 mph - N/A   Overcast
11:35 AM 35.6 °F 27.5 °F 35.6 °F 100% 29.75 in 5.0 mi SW 11.5 mph - N/A   Overcast
11:55 AM 35.6 °F 27.5 °F 33.8 °F 93% 29.75 in 4.0 mi SW 11.5 mph - N/A   Overcast
12:15 PM 35.6 °F 25.9 °F 33.8 °F 93% 29.74 in 4.0 mi SSW 16.1 mph - N/A   Overcast
12:35 PM 35.6 °F 26.6 °F 32.0 °F 87% 29.74 in 3.0 mi SW 13.8 mph - N/A   Overcast
12:55 PM 35.6 °F 28.0 °F 32.0 °F 87% 29.72 in 5.0 mi SW 10.4 mph 18.4 mph N/A   Overcast
1:15 PM 35.6 °F 26.2 °F 32.0 °F 87% 29.72 in 4.0 mi SW 15.0 mph 21.9 mph N/A   Overcast
1:35 PM 35.6 °F 29.2 °F 32.0 °F 87% 29.71 in 5.0 mi SW 8.1 mph 16.1 mph N/A   Overcast
1:55 PM 35.6 °F 28.0 °F 33.8 °F 93% 29.72 in 4.0 mi SW 10.4 mph 16.1 mph N/A   Overcast
2:15 PM 35.6 °F 27.5 °F 33.8 °F 93% 29.72 in 4.0 mi SW 11.5 mph - N/A   Overcast
2:35 PM 35.6 °F 27.1 °F 33.8 °F 93% 29.72 in 4.0 mi SW 12.7 mph - N/A   Overcast
2:55 PM 35.6 °F 27.1 °F 33.8 °F 93% 29.71 in 4.0 mi SW 12.7 mph 21.9 mph N/A   Overcast
3:15 PM 35.6 °F 26.2 °F 33.8 °F 93% 29.71 in 4.0 mi SW 15.0 mph - N/A   Overcast
3:35 PM 35.6 °F 28.0 °F 33.8 °F 93% 29.71 in 4.0 mi SW 10.4 mph - N/A   Overcast
3:55 PM 35.6 °F 27.1 °F 33.8 °F 93% 29.70 in 4.0 mi SW 12.7 mph - N/A   Overcast
4:15 PM 35.6 °F 28.0 °F 32.0 °F 87% 29.71 in 5.0 mi SW 10.4 mph - N/A   Overcast
4:35 PM 35.6 °F 26.6 °F 32.0 °F 87% 29.71 in 4.0 mi SW 13.8 mph 17.3 mph N/A   Overcast
4:55 PM 35.6 °F 26.6 °F 32.0 °F 87% 29.72 in 5.0 mi SW 13.8 mph 20.7 mph N/A   Haze
5:15 PM 35.6 °F 26.6 °F 32.0 °F 87% 29.72 in 5.0 mi SW 13.8 mph 17.3 mph N/A   Haze
5:35 PM 35.6 °F 28.0 °F 32.0 °F 87% 29.73 in 4.0 mi WSW 10.4 mph - N/A   Overcast
5:55 PM 35.6 °F 29.2 °F 32.0 °F 87% 29.73 in 5.0 mi SW 8.1 mph - N/A   Overcast
6:15 PM 35.6 °F 28.0 °F 32.0 °F 87% 29.73 in 4.0 mi SW 10.4 mph - N/A   Overcast
6:35 PM 35.6 °F 28.6 °F 32.0 °F 87% 29.74 in 4.0 mi SW 9.2 mph - N/A   Overcast
6:55 PM 33.8 °F 27.7 °F 33.8 °F 100% 29.74 in 1.0 mi WSW 6.9 mph - N/A Snow Light Snow
7:15 PM 33.8 °F 27.0 °F 33.8 °F 100% 29.75 in 1.5 mi SW 8.1 mph - N/A Snow Light Snow
7:35 PM 33.8 °F 27.7 °F 33.8 °F 100% 29.75 in 1.5 mi SW 6.9 mph - N/A Snow Light Snow
7:55 PM 33.8 °F 27.0 °F 33.8 °F 100% 29.75 in 0.8 mi WSW 8.1 mph - N/A Snow Light Snow
8:15 PM 33.8 °F 27.7 °F 33.8 °F 100% 29.75 in 1.2 mi West 6.9 mph - N/A Snow Light Snow
8:35 PM 33.8 °F 27.7 °F 33.8 °F 100% 29.75 in 1.8 mi WSW 6.9 mph - N/A Snow Light Snow
9:15 PM 33.8 °F 28.6 °F 33.8 °F 100% 29.75 in 3.0 mi WSW 5.8 mph - N/A Snow Light Snow
9:35 PM 33.8 °F 29.6 °F 33.8 °F 100% 29.75 in 3.0 mi WSW 4.6 mph - N/A Snow Light Snow
9:55 PM 33.8 °F 27.7 °F 33.8 °F 100% 29.75 in 1.0 mi WSW 6.9 mph - N/A Snow Light Snow
10:15 PM 32.0 °F 25.6 °F 32.0 °F 100% 29.75 in 1.8 mi WSW 6.9 mph - N/A Snow Light Snow
10:35 PM 32.0 °F 24.8 °F 32.0 °F 100% 29.75 in 2.0 mi West 8.1 mph - N/A Snow Light Snow
10:55 PM 32.0 °F 25.6 °F 32.0 °F 100% 29.74 in 3.0 mi WSW 6.9 mph - N/A Snow Light Snow
11:15 PM 32.0 °F 25.6 °F 32.0 °F 100% 29.74 in 2.5 mi West 6.9 mph - N/A Snow Light Snow
11:35 PM 32.0 °F 24.8 °F 32.0 °F 100% 29.74 in 0.8 mi West 8.1 mph - N/A Snow Light Snow
11:55 PM 32.0 °F 25.6 °F 32.0 °F 100% 29.74 in 1.8 mi West 6.9 mph - N/A Snow Light Snow